Temp_Advection
nan nan nan nan nan nan nan nan nan nan nan nan nan nan nan nan nan nan nan nan nan nan
nan -1 -1 -1 -1 -0 -0 -0 -0 0 0 0 0 0 0 0 0 -0 -1 -1 -1 nan
nan -1 -1 -1 -1 -1 -0 -0 -0 0 0 -0 0 1 1 1 1 -0 -1 -1 0 nan
nan -1 -1 -1 -2 -1 -0 -0 0 1 0 -0 -0 0 1 0 0 -0 -0 0 0 nan
nan -1 -1 -1 -1 -1 -1 -0 0 -0 -1 0 1 0 -0 1 0 -0 -0 -0 -1 nan
nan -0 -1 -1 -2 -2 -1 -1 -0 -0 0 0 0 0 0 0 -0 0 -0 -0 -1 nan
nan -0 -0 -0 -2 -2 -2 -1 -0 0 0 -1 0 1 -0 -1 -0 -0 -0 -0 1 nan
nan 0 -1 -0 -1 -2 -1 -1 -1 -0 -1 -0 0 -2 -1 1 -0 -0 1 0 0 nan
nan -0 -0 -0 -1 -2 -1 -1 -1 -1 -1 -1 1 0 -2 0 1 -0 -0 -0 -0 nan
nan -0 -0 -0 -0 -1 -2 -1 -1 -1 -1 -0 -0 -1 -1 -0 -0 -0 -0 0 1 nan
nan -1 -0 -0 -0 -0 -1 -1 -1 -1 -1 -1 -1 -1 -1 -1 1 1 -0 -0 0 nan
nan -0 -0 -1 -0 0 -0 -0 -1 -1 -1 -1 -1 -1 -2 -0 0 -0 -2 -0 1 nan
nan -0 -0 -0 -0 -0 -0 -0 0 -0 -0 -1 -1 -1 -2 -1 -0 0 0 -0 -0 nan
nan nan nan nan nan nan nan nan nan nan nan nan nan nan nan nan nan nan nan nan nan nan
Wind_Speed
12 11 13 16 14 19 23 33 31 31 41 40 44 46 44 42 43 45 45 49 47 42
14 12 11 14 22 23 22 28 33 33 37 49 50 48 47 43 46 49 51 53 49 44
18 14 11 11 15 23 27 22 29 29 33 38 47 53 52 50 48 49 49 51 49 47
21 15 12 11 15 18 25 21 24 30 31 35 49 50 51 50 49 48 45 45 48 45
25 17 13 15 12 13 17 23 30 32 39 37 44 46 52 51 50 51 49 50 51 53
32 25 18 18 17 15 13 20 27 24 25 26 41 45 45 42 51 53 54 55 57 57
34 32 27 21 20 15 15 15 26 28 31 31 35 26 29 44 44 50 51 54 55 54
33 32 33 26 24 18 14 14 19 26 26 25 42 45 35 28 49 46 52 51 52 49
33 34 32 32 30 24 15 13 14 19 27 29 28 26 26 24 43 51 46 46 43 46
32 33 32 33 32 30 20 13 12 12 15 26 26 31 26 23 30 47 44 41 43 40
32 32 32 30 32 31 26 18 13 11 12 13 16 25 33 31 30 30 40 37 28 40
28 29 30 28 30 31 29 24 18 13 10 9 12 20 28 27 44 42 39 33 35 30
25 26 26 28 27 28 28 29 25 18 12 8 9 12 20 30 27 29 38 33 41 35
23 24 24 24 25 28 29 29 30 28 24 19 14 12 11 17 22 21 33 40 35 40
Wind_Direction
333 323 292 243 222 227 235 250 247 247 236 240 216 220 223 222 218 219 219 221 225 229
335 332 322 267 237 234 237 242 257 244 245 234 228 220 222 219 223 225 226 229 229 231
339 332 322 300 259 243 238 234 241 253 248 253 244 231 222 220 223 226 227 228 231 230
350 333 324 325 280 252 239 217 227 256 255 245 241 240 227 221 220 224 227 224 228 230
356 344 329 324 306 290 256 228 225 234 250 264 251 236 237 226 218 225 227 228 230 237
7 358 343 335 324 303 276 239 224 220 219 241 245 256 232 240 239 239 236 235 236 240
8 8 1 348 336 318 293 267 238 234 235 237 252 254 253 246 246 242 244 242 239 240
4 8 7 360 349 333 307 286 257 243 242 242 236 248 273 279 259 245 241 243 244 246
2 8 8 6 2 347 329 302 283 253 241 235 236 248 248 272 236 248 233 235 237 242
359 6 8 10 11 2 357 333 304 285 260 246 251 245 251 246 242 253 238 241 242 246
2 4 8 10 15 11 12 5 344 312 289 265 259 241 238 233 246 244 240 244 254 261
1 3 8 13 12 18 23 23 19 360 332 306 269 265 252 239 240 247 237 253 249 261
359 4 5 10 14 20 26 28 34 30 19 344 316 296 262 251 247 241 248 250 239 249
360 4 7 7 21 18 25 34 35 38 34 29 10 345 307 263 251 249 227 237 245 246
Height
1462 1459 1459 1457 1459 1462 1463 1466 1470 1473 1474 1475 1482 1486 1491 1496 1500 1506 1511 1516 1521 1524
1459 1456 1453 1453 1453 1456 1459 1461 1463 1467 1470 1470 1471 1478 1484 1489 1494 1499 1504 1509 1514 1518
1457 1453 1450 1449 1448 1450 1452 1455 1457 1461 1464 1466 1467 1464 1471 1480 1485 1490 1497 1501 1506 1510
1456 1451 1446 1443 1444 1445 1449 1449 1451 1456 1458 1461 1462 1463 1460 1471 1478 1481 1488 1493 1498 1502
1455 1448 1444 1443 1442 1443 1442 1444 1444 1451 1451 1455 1455 1457 1458 1464 1469 1474 1478 1484 1489 1493
1454 1447 1442 1440 1439 1437 1436 1438 1439 1442 1444 1449 1451 1454 1450 1453 1461 1465 1469 1473 1478 1483
1455 1447 1441 1436 1434 1432 1432 1431 1433 1435 1437 1440 1443 1451 1452 1446 1452 1457 1460 1464 1468 1474
1456 1448 1441 1436 1432 1429 1427 1426 1425 1426 1430 1431 1439 1442 1443 1442 1445 1448 1451 1456 1459 1463
1456 1448 1441 1437 1432 1427 1422 1421 1419 1419 1421 1426 1429 1431 1432 1433 1440 1439 1442 1447 1451 1453
1458 1450 1444 1438 1433 1427 1420 1416 1414 1414 1415 1418 1419 1419 1417 1423 1430 1434 1432 1437 1442 1446
1458 1452 1446 1441 1436 1429 1421 1416 1411 1410 1411 1412 1413 1411 1412 1416 1421 1423 1423 1429 1435 1437
1460 1455 1449 1443 1439 1432 1425 1417 1411 1409 1409 1408 1408 1406 1405 1407 1412 1411 1414 1423 1427 1429
1462 1456 1451 1447 1441 1435 1428 1421 1415 1411 1408 1405 1404 1402 1401 1401 1401 1404 1409 1414 1417 1420
1460 1456 1452 1448 1441 1436 1431 1425 1419 1414 1410 1404 1402 1398 1396 1395 1395 1395 1399 1404 1405 1409